Change the Weather History Date:

Monday, September 9, 2013

  Actual Average Record
Temperature  
Mean Temperature 54 °F -  
Max Temperature 68 °F 75 °F 88 °F (1959)
Min Temperature 43 °F 58 °F 43 °F (2013)
Degree Days  
Heating Degree Days 10    
Growing Degree Days 4 (Base 50)    
Moisture  
Dew Point 46 °F    
Average Humidity 73    
Maximum Humidity 93    
Minimum Humidity 45    
Precipitation  
Precipitation 0.00 in - - ()
Sea Level Pressure  
Sea Level Pressure 30.18 in    
Wind  
Wind Speed 3 mph (SSW)    
Max Wind Speed 13 mph    
Max Gust Speed 21 mph    
Visibility 10 miles    
Events      
Averages and records for this station are not official NWS values.
T = Trace of Precipitation, MM = Missing Value Source: NWS Daily Summary

Daily Weather History Graph

Daily Weather History Graph

Search for Another Location

Airport or City:

Trip Planner

Search our weather history database for the weather conditions in past years. The results will help you decide how hot, cold, wet, or windy it might be!

Date:

Astronomy

Sep. 09, 2013 Rise Set
Actual Time 6:18 AM EDT 7:03 PM EDT
Civil Twilight 5:50 AM EDT 7:31 PM EDT
Nautical Twilight 5:16 AM EDT 8:04 PM EDT
Astronomical Twilight 4:42 AM EDT 8:38 PM EDT
Moon 10:40 AM EDT (9/9) 9:13 PM EDT (9/9)
Length of Visible Light 13h 41m
Length of Day
12h 45m
Waxing Crescent, 19% of the Moon is Illuminated
Sep 9
Waxing Crescent
Sep 12
First Quarter
Sep 19
Full
Sep 26
Last Quarter
Oct 4
New

Hourly Weather History & Observations

Time (EDT) Temp. Windchill Dew Point Humidity Pressure Visibility Wind Dir Wind Speed Gust Speed Precip Events Conditions
12:53 AM 46.9 °F - 43.0 °F 86% 30.10 in 10.0 mi NNW 3.5 mph - N/A   Clear
1:53 AM 46.0 °F 43.9 °F 43.0 °F 89% 30.10 in 10.0 mi SSW 4.6 mph - N/A   Clear
2:53 AM 43.0 °F - 41.0 °F 93% 30.11 in 10.0 mi Calm Calm - N/A   Clear
3:53 AM 46.9 °F - 42.1 °F 83% 30.13 in 10.0 mi Calm Calm - N/A   Clear
4:53 AM 45.0 °F - 41.0 °F 86% 30.15 in 10.0 mi Calm Calm - N/A   Clear
5:53 AM 44.1 °F - 41.0 °F 89% 30.18 in 10.0 mi Calm Calm - N/A   Clear
6:53 AM 45.0 °F - 41.0 °F 86% 30.20 in 10.0 mi Calm Calm - N/A   Clear
7:53 AM 53.1 °F - 45.0 °F 74% 30.22 in 10.0 mi Calm Calm - N/A   Clear
8:53 AM 57.9 °F - 45.0 °F 62% 30.23 in 10.0 mi Calm Calm - N/A   Clear
9:53 AM 63.0 °F - 44.1 °F 50% 30.24 in 10.0 mi Calm Calm - N/A   Clear
10:53 AM 64.9 °F - 43.0 °F 45% 30.23 in 10.0 mi Calm Calm - N/A   Clear
11:53 AM 66.0 °F - 45.0 °F 47% 30.22 in 10.0 mi SE 3.5 mph - N/A   Clear
12:53 PM 66.9 °F - 46.9 °F 49% 30.21 in 10.0 mi SSE 5.8 mph - N/A   Clear
1:53 PM 66.0 °F - 48.0 °F 52% 30.20 in 10.0 mi SSW 11.5 mph 20.7 mph N/A   Clear
2:53 PM 66.0 °F - 48.0 °F 52% 30.20 in 10.0 mi SW 12.7 mph - N/A   Clear
3:53 PM 64.0 °F - 48.0 °F 56% 30.20 in 10.0 mi SW 12.7 mph - N/A   Clear
4:53 PM 64.9 °F - 51.1 °F 61% 30.20 in 10.0 mi SSW 10.4 mph - N/A   Clear
5:53 PM 63.0 °F - 51.1 °F 65% 30.19 in 10.0 mi SSW 8.1 mph - N/A   Clear
6:53 PM 59.0 °F - 51.1 °F 75% 30.19 in 10.0 mi SW 4.6 mph - N/A   Clear
7:53 PM 57.0 °F - 51.1 °F 81% 30.19 in 10.0 mi Calm Calm - N/A   Clear
8:53 PM 54.0 °F - 51.1 °F 90% 30.18 in 10.0 mi SW 3.5 mph - N/A   Clear
9:53 PM 53.1 °F - 50.0 °F 89% 30.19 in 10.0 mi Calm Calm - N/A   Clear
10:53 PM 53.1 °F - 51.1 °F 93% 30.19 in 10.0 mi Calm Calm - N/A   Clear
11:53 PM 53.1 °F - 50.0 °F 89% 30.17 in 10.0 mi Calm Calm - N/A   Clear